Regional Weather Roundup
Issued by NWS Wakefield, VA

Home | Current Version | Previous Version | Text Only | Print | Product List | Glossary Off
Versions: 1 2 3 4 5 6 7 8 9 10 11 12 13 14 15 16 17 18 19 20 21 22 23 24 25 26 27 28 29 30 31 32 33 34 35 36 37 38 39 40 41 42 43 44 45 46 47 48 49 50

000
ASUS41 KAKQ 050115
RWRAKQ

REGIONAL WEATHER ROUNDUP
NATIONAL WEATHER SERVICE WAKEFIELD VA
900 PM EDT SAT JUL 04 2015

Note: "fair" indicates few or no clouds below 12,000 feet with no
significant weather and/or obstructions to visibility. * = Denotes
station may not report precipitation (e.g., rain,snow,etc.),
thunder or fog.

VAZ042-051-052>054-056-050200-
NORTHERN VIRGINIA

CITY           SKY/WX    TMP DP  RH WIND       PRES   REMARKS
WASH NATIONAL  MOCLDY    76  71  85 CALM      29.97R
DULLES         MOCLDY    71  70  96 CALM      29.98R
FORT BELVOIR   FOG       70  68  94 SE1       29.98R VSB 1
QUANTICO       PTCLDY    74  70  87 NW3       29.98R
FREDERICKSBRG* CLEAR     76  72  88 N5        29.96R
STAFFORD*      PTCLDY    70  69  95 CALM      30.02R
WARRENTON      PTCLDY    71  70  99 CALM      29.98R
CULPEPER*        N/A     68  68  99 CALM      30.00R FOG
MANASSAS*      NOT AVBL
LEESBURG*      MOCLDY    73  72  94 N6        30.00R
WINCHESTER     CLOUDY    73  68  83 CALM      30.00R
FRONT ROYAL*   FAIR      70  68  94 CALM      29.98R
LURAY*         FAIR      73  73 100 N5        30.00R
$$

VAZ048-049-060>072-079>083-050200-
CENTRAL AND SOUTH CENTRAL VIRGINIA

CITY           SKY/WX    TMP DP  RH WIND       PRES   REMARKS
RICHMOND       MOCLDY    72  68  88 CALM      29.97R
CHESTERFIELD*  NOT AVBL
PETERSBURG*    PTCLDY    72  72 100 CALM      29.98S
HANOVER        FOG       70  69  97 CALM      29.99R VSB 3/4
TAPPAHANNOCK*  PTCLDY    73  69  86 CALM      29.98R
QUINTON*       NOT AVBL
CHARLOTTSVILLE MOCLDY    73  68  84 NE3       29.99R
GORDONSVILLE*  FAIR      70  70 100 CALM      29.98R
ORANGE*        PTCLDY    72  70  94 CALM      30.00R
LOUISA*        PTCLDY    73  70  88 CALM      29.97S
BUMPASS*       FAIR      72  70  93 CALM      29.98R
FARMVILLE*     PTCLDY    75  75  98 CALM      29.97R
CREWE*         MOCLDY    74  72  93 CALM      29.98R
FORT PICKETT*  FAIR      73  71  93 S10       29.98S
CHASE CITY*    FAIR      76  76 100 CALM      29.99S
CLARKSVILLE*   MOCLDY    73  73 100 CALM      29.99R
SOUTH HILL*    PTCLDY    73  71  91 CALM      30.04S
LAWRENCEVILLE* NOT AVBL
EMPORIA*         N/A     77  72  83 CALM      29.99S
$$

VAZ088>098-050200-
SOUTHEAST VIRGINIA

CITY           SKY/WX    TMP DP  RH WIND       PRES   REMARKS
NORFOLK        PTCLDY    82  72  71 SW10      29.94R
VIRGINIA BEACH MOCLDY    82  72  71 SW9       29.94R
NORFOLK NAVAL  MOCLDY    80  73  79 SW10      29.96R THUNDER
WEST POINT*    CLOUDY    73  69  86 CALM      29.98R
SALUDA*        CLOUDY    74  71  90 N16G30    29.96R
NEWPORT NEWS   MOCLDY    76  71  85 W14       29.96R
LANGLEY AFB    MOCLDY    75  72  88 SW14      29.94R THUNDER
FORT EUSTIS    RAIN      73  73 100 NW15      29.94R
WILLIAMSBURG*  MOCLDY    73  72  94 W7G16     29.97R
HR EXEC AP*    FAIR      79  72  78 SW6       29.98R
FRANKLIN*      PTCLDY    79  72  78 SW3       29.98R
WAKEFIELD      LGT RAIN  72  68  87 CALM      29.97S
$$

VAZ020-022-025-037-045-050200-
WEST CENTRAL AND SOUTHWEST VIRGINIA

CITY           SKY/WX    TMP DP  RH WIND       PRES   REMARKS
STAUNTON*      PTCLDY    76  66  71 CALM      30.03R
WAYNESBORO*    MOCLDY    73  65  75 NW3       30.02R
HOT SPRINGS VA MOCLDY    66  63  90 CALM      30.13R
LYNCHBURG      PTCLDY    73  71  93 SW5       30.01R
DANVILLE       PTCLDY    72  69  90 CALM      30.00R
SOUTH BOSTON*  FAIR      71  69  95 MISG      29.99S
MARTINSVILLE   LGT RAIN  73  73 100 CALM      30.05R
ROANOKE        MOCLDY    75  68  78 NW5       30.03R
BLACKSBURG     MOCLDY    70  68  94 CALM      30.10R
DUBLIN*        MOCLDY    73  69  89 CALM      30.08R
MARION*        MOCLDY    67  65  93 W5        30.13R
HILLSVILLE*    MOCLDY    69  64  85 W3        30.09R
RICHLANDS*     FAIR      68  66  93 SW3       30.11R
WISE*          CLOUDY    68  66  94 CALM      30.12R
ABINGDON*      CLOUDY    71  69  95 CALM      30.09R
$$

MDZ021>025-VAZ099-100-050200-
SOUTHERN MARYLAND AND THE DELMARVA PENINSULA

CITY           SKY/WX    TMP DP  RH WIND       PRES   REMARKS
PATUXENT RIVER CLOUDY    72  70  93 NE3       29.96R
BAY BRIDGE APT   N/A     72  70  94 NE3       29.97R
LEONARDTOWN    MOCLDY    70  68  94 CALM      29.98R
DOVER          CLOUDY    72  67  83 SE10      29.96R
GEORGETOWN     CLOUDY    71  68  90 E5        29.98R
EASTON         NOT AVBL
CAMBRIDGE      CLOUDY    72  68  88 SE7       29.97R
SALISBURY      RAIN      69  69 100 N3        29.97R FOG
OCEAN CITY     MOCLDY    72  69  90 E5        29.96
WALLOPS ISLAND RAIN      73  73 100 E9        29.95S FOG
ACCOMACK*      CLOUDY    73  73 100 CALM      29.94S
$$

NCZ012>017-030>032-050200-
NORTH CENTRAL AND EASTERN NORTH CAROLINA

CITY           SKY/WX    TMP DP  RH WIND       PRES   REMARKS
ROANOKE RAPIDS MOCLDY    77  72  83 CALM      29.98S
RALEIGH        MOCLDY    79  69  71 SW8       30.00R
ELIZABETH CITY MOCLDY    77  72  84 SW7       29.98R
AHOSKIE*       PTCLDY   N/A N/A N/A CALM      29.98S
EDENTON*         N/A     80  73  79 W3        29.99R
CURRITUCK*     MOCLDY    79  68  69 SW5       29.98R
KILL DEVIL HLS MOCLDY    77  71  81 CALM      29.98R
MANTEO         MOCLDY    77  72  83 W5        30.00R
CAPE HATTERAS  MOCLDY    79  73  82 SW14      30.01R
TARBORO*         N/A     76  70  82 SW3       30.00S
GOLDSBORO      MOCLDY    83  69  63 SW5       29.99R
WASHINGTON     PTCLDY    81  68  63 SW10      30.00R
GREENVILLE     MOCLDY    81  70  69 SW6       30.02R
NEW BERN       PTCLDY    80  71  74 SW3       30.03R
WILMINGTON     MOCLDY    81  72  74 SW13G20   30.04R
$$

VAZ048-050200-
ELSEWHERE

CITY           SKY/WX    TMP DP  RH WIND       PRES   REMARKS
HARRISBURG PA  CLOUDY    69  65  86 CALM      30.00R
BALTIMORE      CLOUDY    72  67  84 N3        29.97R
ANNAPOLIS      MOCLDY    74  69  85 N3        29.97R
ANDREWS AFB    PTCLDY    71  71  99 CALM      29.97R FOG
PHILADELPHIA   CLOUDY    71  61  70 E8        29.99R
HENDERSON NC   PTCLDY    74  69  85 CALM      29.99R
GREENSBORO     MOCLDY    79  67  66 SW5       30.00R
ROCKY MOUNT    PTCLDY    74  73  97 CALM      29.99S
$$

VAZ100-050200-
MARINE

STATION/POSITION TIME  TEMP    WIND        PRES    WAVE   SWELL
                       AIR SEA DIR/SP/G            HT/PER HT/PER
                 (UTC) (F)     (DEG/KT/KT) (MB)    (FT/S) (FT/S)
BRANDYWINE LGT   0000   72 74  140/ 13/ 13 1014.9R
CAPE MAY NJ      0000   72 77  110/  5/  8 1014.5R
LEWES DE         0000   72 73  130/  4/  5 1014.6R
15NM E FENWICK I 0050   72 73              1014.4R   5/ 8
OCEAN-CITY-INLET 0000   73 75  130/  5/  8 1014.1R
WACHAPREAGUE VA  0000   75 82   50/ 11/ 12 1013.9R
THOMAS POINT MD  0100   75 77   40/  7/  8 1015.2R
GOOSES REEF MD   0100   76 77  330/  6/  8 1015.6R
COVE POINT MD    0000   73     360/  5/  7 1014.4R
SOLOMONS ISLAND  0000      80                N/A
BISHOPS HEAD MD  0000   74     100/ 12/ 14 1013.7R
PINEY POINT MD   0000          150/  3/  4   N/A
CAMBRIDGE MD     0000   74 79  110/  9/ 12 1013.7R
LEWISETTA VA     0000   70 80   10/  9/ 14 1014.6R
RAPPAHANNOCK LGT 0000          160/  5/  6 1013.5F
STINGRAY PT      0100   75 81  360/ 23/ 31 1014.1R   1/ 2
YORK RVR RNG VA  0000   82     260/  7/  7 1012.9R
YORKTOWN VA      0000   81 80  230/  5/  5 1013.2R
JAMESTOWN VA     0100   74 82  270/  8/ 12   N/A
DOMINION TERM VA 0000   83     250/  9/ 11 1013.6R
KIPTOPEKE VA     0000      84  150/  6/  6   N/A
CHES BAY BRIDGE  0000   82 79  210/ 15/ 16 1013.1R
CAPE HENRY VA    0000   79     190/  5/  7   N/A
CHESAPEAKE LGHT  0000   78     220/  7/  8 1014.5R
WILLOUBY STN VA  0000   81     250/  8/  9 1014.5R
CAPE HENRY BUOY  0028      78                N/A     3/ 8
1ST LANDING BUOY 0100      78              1013.5R   2/ 4
CAPE CHARLES BUO 0026      76                N/A     2/ 8   2/ 8
OFFSHORE WE BUOY 0011      78                N/A     4/ 7   3/ 7
64NM E OF VA BCH 0050   78 77  230/ 12/ 14 1013.9R   5/ 7   5/ 7
DUCK PIER NC     0000   80 72  230/ 11/ 13   N/A
44100 DUCK FRF   0024      77                N/A     3/ 7
44056 DUCK FRF   0011      77                N/A     2/14
OREGON INLET NC  0000   79 82  200/  9/ 10 1014.9S
HATTERAS NC      0000   80 80  220/ 11/ 18 1015.6R
DIAMOND SHLS NC  0050   82 81  220/ 21/ 25 1015.9R   6/ 6   2/ 9
CAPE LOOKOUT NC  0100   80     220/ 13/ 17 1016.7R
$$


USA.gov is the U.S. government's official web portal to all federal, state and local government web resources and services.